DELTA 1 DEB *, 9703

Orbit data source: Space-Track

DELTA 1 DEB *, 9703 is space debris in LEO originally from a launch on Tue, 06 Nov 1973 UTC launched from the Air Force Western Test Range (AFWTR). Debris objects in space refer to the collection of defunct objects orbiting the Earth. Examples of debris include non-operational satellites, rocket bodies, and fragments generated from explosions, collisions, or faulty payload assembly.

Loading next visibility...
Identifier
9703, 1973-086GB
Orbit
LEO
Country
Flag of USUS
Related business
Manufacturer
Unknown
Mission
Spacecraft
Bus & Motor
Unknown
Mass
Unknown
Launch date (UTC)
1973-11-06 (53 years ago)
Launch vehicle
Unknown
Launch site
Air Force Western Test Range (AFWTR)
Object type
Payload
Rocket body
Debris
Shape & HBR
Unknown shape, 0.1 m
Radar Cross Section
Medium (>0.1 m² and <1 m²)

Expand to show TLE details & history
Last TLE update: 7 hours ago

TLE from 7 hours ago
0 DELTA 1 DEB *
1  9703U 73086GB  26221.82338566  .00000013  00000-0  10332-3 0  9993
2  9703  65.7210 172.0586 0133504 218.9072 162.8846 13.67794443591341
Epoch: 2026-08-09T19:45Z
TLE epoch observation values (Epoch: 2026-08-09T19:45:40.521Z)
Latitude
20.19718°
Longitude
-73.17254°
Altitude
1,103.437 km
Speed
7.256 km/s
True Right ascension
12h 06m 14s
True Declination
20° 05' 28"
Sunlit
Object was in daylight at epoch
Visualization orbit readout
Latitude
Unknown
Longitude
Unknown
Altitude
Unknown
Speed
Unknown
Apparent Right ascension
Unknown
Apparent Declination
Unknown
Sunlit
N/A
Visualization observer readout
Local Sidereal Time
16:45:18
Azimuth
Unknown
Elevation
Unknown
Doppler factor
Unknown
Orbital elements
Apogee altitude
1,104.617 km
Perigee altitude
907.453 km
Semi-major axis
7,384.172 km
Eccentricity
0.01335
Inclination
65.721°
RAAN
172.0586°
Arg. of periapsis
218.9072°
True anomaly
163.32775°
Mean anomaly
162.8846°
Eccentric anomaly
163.10688°
Mean motion
3.42051 °/min
Orbital period
105.25 mins
BSTAR
0.00010332
Loading maneuver chart data...
Computing Atmospheric mass density...
Loading historical data...
Loading historical data...
Loading historical data...
Loading historical data...
Loading historical data...
Loading historical data...
Loading historical data...

Documentation

Showing up to 5 results
|